FW6987 Weather Reports


time (UTC)temp
F
wind
direction
speed
knots
gust
knots
rain 1hr
in
rain 24hr
in
rain mn
in
humidity
%
barometer
mb
20260504044600 47 0 0.0 0.0 0.00 0.00 0.00 61 1002.3
20260504043053 48 0 0.0 0.0 0.00 0.00 0.00 59 1002.1
20260504041556 50 0 0.0 1.7 0.00 0.00 0.00 54 1002.1
20260504040052 51 0 0.0 3.5 0.00 0.00 0.00 49 1001.9
20260504034552 51 215 0.9 4.3 0.00 0.00 0.00 49 1001.9
20260504033101 49 209 0.9 3.5 0.00 0.00 0.00 51 1002.0
20260504031603 49 360 0.9 2.6 0.00 0.00 0.00 54 1002.0
20260504030055 50 277 0.9 1.7 0.00 0.00 0.00 51 1001.9
20260504024602 51 276 2.6 6.1 0.00 0.00 0.00 49 1001.9
20260504023054 50 277 1.7 3.5 0.00 0.00 0.00 50 1002.0
20260504021555 49 0 0.9 4.3 0.00 0.00 0.00 52 1001.9
20260504020052 48 0 0.0 0.0 0.00 0.00 0.00 52 1002.0
20260504014559 48 0 0.0 1.7 0.00 0.00 0.00 53 1001.9
20260504013104 49 0 0.0 2.6 0.00 0.00 0.00 53 1001.8
20260504011555 49 296 0.0 1.7 0.00 0.00 0.00 52 1001.9
20260504010057 49 0 0.9 1.7 0.00 0.00 0.00 52 1001.7
20260504004603 49 296 0.0 1.7 0.00 0.00 0.00 51 1001.6
20260504003054 50 0 0.0 0.0 0.00 0.00 0.00 50 1001.4
20260504001557 51 78 0.0 1.7 0.00 0.00 0.00 49 1001.0
20260504000053 52 327 0.0 1.7 0.00 0.00 0.00 46 1001.0
20260503234550 53 0 0.0 2.6 0.00 0.00 0.00 44 1000.7
20260503233050 54 144 0.0 3.5 0.00 0.00 0.00 43 1000.7
20260503231555 55 137 0.0 5.2 0.00 0.00 0.00 41 1000.6
20260503230053 55 88 0.0 0.0 0.00 0.00 0.00 38 1000.5
20260503224553 56 0 0.0 2.6 0.00 0.00 0.00 38 1000.5
20260503223058 56 141 0.9 5.2 0.00 0.00 0.00 36 1000.4
20260503221554 56 112 0.0 3.5 0.00 0.00 0.00 35 1000.2
20260503220059 57 119 1.7 5.2 0.00 0.00 0.00 32 1000.1
20260503214551 57 141 1.7 7.8 0.00 0.00 0.00 32 1000.0
20260503213054 57 125 1.7 6.1 0.00 0.00 0.00 29 999.8
20260503211604 57 112 1.7 6.1 0.00 0.00 0.00 30 999.5
20260503210050 57 160 1.7 7.0 0.00 0.00 0.00 31 999.4
20260503204554 57 139 2.6 6.1 0.00 0.00 0.00 31 999.6
20260503203052 57 178 1.7 7.8 0.00 0.00 0.00 32 999.8
20260503201551 56 137 3.5 10.4 0.00 0.00 0.00 33 999.6
20260503200054 56 151 2.6 9.6 0.00 0.00 0.00 32 999.7
20260503194550 56 113 2.6 8.7 0.00 0.00 0.00 34 1000.0
20260503193056 56 244 3.5 7.8 0.00 0.00 0.00 33 1000.2
20260503191550 55 63 1.7 7.0 0.00 0.00 0.00 33 1000.6
20260503190055 56 125 1.7 7.0 0.00 0.00 0.00 35 1000.5
20260503184603 55 175 4.3 8.7 0.00 0.00 0.00 36 1000.3
20260503183051 55 150 4.3 9.6 0.00 0.00 0.00 35 1000.6
20260503181556 54 129 4.3 7.8 0.00 0.00 0.00 37 1000.9
20260503180051 52 164 0.9 9.6 0.00 0.00 0.00 41 1001.0
20260503174607 51 130 4.3 13.0 0.00 0.00 0.00 38 1001.2
20260503173050 54 146 1.7 11.3 0.00 0.00 0.00 39 1001.3
20260503171549 53 127 3.5 7.0 0.00 0.00 0.00 42 1001.4
20260503100110 38 0 0.0 7.8 0.00 0.00 0.00 70 1001.1
20260503090112 36 0 0.0 1.7 0.00 0.01 0.00 73 1000.9
20260503081556 38 114 0.0 1.7 0.00 0.05 0.00 70 1001.2
20260503071552 41 0 0.9 2.6 0.00 0.09 0.00 65 1001.3
20260503054553 43 110 0.9 4.3 0.00 0.18 0.00 60 1001.5
20260503053055 43 94 3.5 13.0 0.00 0.18 0.00 58 1001.4
20260503051552 43 128 5.2 12.2 0.00 0.18 0.00 58 1001.4